Location: Peach Mountain Observatory
(42.3967°N, 83.9367°W)
Time: 17:08:53
(UTC-05:00)

S-56A Canister/Altair - Pass Details

Date: 31 January 2020
Orbit: 633 x 2499 km, 38.9° (Epoch: 19 February)

Event Time Altitude Azimuth Distance (km) Brightness Sun altitude
Rises 16:07:26 0° 200° (SSW) 5,698 13.1 14.8°
Reaches altitude 10° 16:12:53 10° 185° (S) 4,377 12.2 14.1°
Maximum altitude 16:20:04 19° 146° (SSE) 3,181 10.8 13.1°
Drops below altitude 10° 16:25:48 10° 105° (ESE) 3,388 10.5 12.2°
Sets 16:29:15 0° 88° (E) 4,057 10.7 11.7°
